Regional Weather Roundup
Issued by NWS Cleveland, OH

Home | Current Version | Previous Version | Graphics & Text | Print | Product List | Glossary On
Versions: 1 2 3 4 5 6 7 8 9 10 11 12 13 14 15 16 17 18 19 20 21 22 23 24 25 26 27 28 29 30 31 32 33 34 35 36 37 38 39 40 41 42 43 44 45 46 47 48 49 50
000
ASUS41 KCLE 051512
RWRCLE
OHIO REGIONAL WEATHER ROUNDUP
NATIONAL WEATHER SERVICE WILMINGTON, OH
1000 AM EST MON DEC 05 2016

NOTE: "FAIR" INDICATES FEW OR NO CLOUDS BELOW 12,000 FEET WITH NO
SIGNIFICANT WEATHER AND/OR OBSTRUCTIONS TO VISIBILITY.

OHZ001>008-015>018-024>027-034-035-043-044-051600-
   NORTHWEST OHIO

CITY           SKY/WX    TMP DP  RH WIND       PRES   REMARKS
DEFIANCE       CLOUDY    36  30  79 S5        30.08R
FINDLAY        CLOUDY    35  29  78 SW7       30.08R WCI  29
TOLEDO EXPRESS CLOUDY    35  33  92 SW7       30.07R WCI  29
TOLEDO EXEC    CLOUDY    36  33  89 SW9       30.09R FOG
LIMA           CLOUDY    33  31  92 SW7       30.09R WCI  27
$$

OHZ009>014-019>023-028>033-038-089-051600-
   NORTHEAST OHIO

CITY           SKY/WX    TMP DP  RH WIND       PRES   REMARKS
CLE-HOPKINS    CLOUDY    39  31  72 SW9       30.10R
CLE-LAKEFRONT  CLOUDY    38  32  79 SW13      30.07R
CUY CO. ARPT   CLOUDY    39  34  81 W13       30.06R
LORAIN-ELYRIA  CLOUDY    36  30  79 W9        30.08R
ASHTABULA      CLOUDY    39  33  79 W7        30.05R
AKRON-CANTON   CLOUDY    37  30  75 W6        30.07R
WOOSTER        CLOUDY    36  30  79 W7        30.09R
MANSFIELD      CLOUDY    34  30  85 W6        30.08R WCI  29
YOUNGSTOWN     CLOUDY    37  31  78 SW10      30.05R
$$

OHZ042-051>053-060>062-070>072-077>081-051600-
  SOUTHWEST OHIO

CITY           SKY/WX    TMP DP  RH WIND       PRES   REMARKS
CINC-COVINGTON CLOUDY    37  31  78 CALM      30.11R
CINC-LUNKEN    CLOUDY    40  32  73 CALM      30.15R
HAMILTON       CLOUDY    38  29  70 CALM      30.14R
DAYTON         CLOUDY    35  30  82 CALM      30.10S
WRIGHT-PAT AFB NOT AVBL
DAYTON GENERAL CLOUDY    37  28  70 W3        30.10R
WILMINGTON     CLOUDY    37  30  75 CALM      30.11R
$$

OHZ036-037-039>041-045>050-054>059-063>069-073>076-082>088-051600-
  CENTRAL AND SOUTHEAST OHIO

CITY           SKY/WX    TMP DP  RH WIND       PRES   REMARKS
COLUMBUS       CLOUDY    37  30  75 W3        30.12R
OSU AIRPORT    CLOUDY    36  30  79 W5        30.11R
BOLTON FIELD   CLOUDY    36  30  80 CALM      30.11R
RICKENBACK AFB CLOUDY    36  30  78 CALM      30.12R
NEWARK         CLOUDY    37  29  72 CALM      30.11R
MARION         CLOUDY    35  29  78 W5        30.10R
LANCASTER      CLOUDY    37  31  78 W5        30.12R
ZANESVILLE     CLOUDY    38  30  73 CALM      30.11R
NEW PHILLY     CLOUDY    37  32  82 W5        30.11R
$$



USA.gov is the U.S. government's official web portal to all federal, state and local government web resources and services.